www.pogodaiklimat.ru

Погода и климат >> Архив погоды >> Россия >> город Севастополь >> Севастополь


АРХИВ ПОГОДЫ в Севастополе

Время (UTC), дата Ветер
(напр.,м/с)
 
Видим.   Явления Облачность Т
(С)
Тd
(С)
f
(%)
Тe
(С)
Тes
(С)
Комфортность P
(гПа)
Po
(гПа)
Тmin
(С)
Tmax
(С)
R
(мм)
R24
(мм)
S
(см)
21 16.09 В 1 20 км ясно +14.7 +13.7 94 +15 +15 прохладно 1016.7 1016.0
00 17.09 В 2 20 км ясно +14.5 +14.3 99 +14 +14 по сезону 1015.4 1014.7
03 17.09 З 2 20 км ясно +18.8 +13.9 73 +20 +20 тепло 1013.0 1012.5 +18.6
06 17.09 ЮЗ 3 20 км 3/3 600 м
[Cu med, cong]
+21.4 +16.8 75 +25 +27 комфорт 1013.1 1012.6 +18.5
09 17.09 ЮЗ 4 20 км 6/3 600 м
[Cu med, cong Cc]
+23.1 +17.5 71 +28 +33 душно 1013.2 1012.7
12 17.09 ЮЗ 6 20 км 8/3 600 м
[Cu med, cong Ci]
+23.0 +18.3 75 +29 +31 очень
душно
1012.5 1012.0
15 17.09 ЮЗ 5
{10}
20 км 8/5 600 м
[Cb cap Ac cast]
+22.5 +19.8 85 +29 +29 очень
душно
1011.3 1010.8
18 17.09 З 5 20 км 6/3 600 м
[Sc diur, vesp Ac cuf Cc]
+21.8 +19.3 86 +27 +27 душно 1012.4 1011.9 +23.5
21 17.09 штиль 0 20 км 5/0
[Ac cast]
+19.0 +17.8 93 +20 +20 тепло 1014.0 1013.3
00 18.09 штиль 0 20 км 6/0
[Ac lent Ci sp]
+17.8 +16.8 94 +18 +18 тепло 1012.7 1012.0
03 18.09 Ю 5 20 км 8/5 600 м
[Sc Cs]
+21.5 +20.1 92 +27 +27 душно 1010.5 1010.0 +20.3
06 18.09 Ю 5
{10}
20 км 5/3 600 м
[Sc Ci fib]
+22.9 +19.8 83 +30 +31 очень
душно
1010.7 1010.2 +20.3
09 18.09 З 5 20 км 7 баллов +25.5 +19.8 71 +31 +33 очень
душно
1012.7 1012.0
12 18.09 СЗ 6 20 км 6/3 600 м
[Cu med, cong Ac cast]
+23.9 +16.7 64 +27 +28 жарко 1012.7 1012.0
15 18.09 С 11-13
{13}
20 км 8/3 600 м
[Cu med, cong Ac As]
+20.7 +13.2 62 +22 +22 комфорт 1014.4 1013.9
18 18.09 С 8-12
{13}
20 км 8/0
[Ac As]
+19.7 +10.8 56 +20 +20 по сезону 1016.6 1016.1 +26.5
21 18.09 С 9-12
{13}
20 км 8/0
[Ac As]
+18.6 +7.7 49 +18 +18 по сезону 1018.7 1018.2
00 19.09 С 10-14
{15}
20 км 4/0
[Ac lent Ci fib]
+17.7 +6.7 48 +16 +16 по сезону 1020.3 1019.8
03 19.09 СВ 8-12
{14}
20 км 6/0
[Ci sp]
+14.6 +5.8 56 +13 +13 холодно 1021.1 1020.6 +14.2
06 19.09 СВ 4
{12}
20 км 8/0
[Ac cast]
+15.6 +6.9 56 +15 +15 холодно 1023.4 1022.7 +12.6
09 19.09 СВ 3
{10}
50 км 9/0
[Ac As]
+16.8 +5.7 48 +17 +18 прохладно 1023.4 1022.7
12 19.09 С 5 50 км 9/0
[Ac As]
+18.2 +5.7 44 +18 +18 холодно 1023.4 1022.7
15 19.09 СВ 4 50 км 8/0
[Ac cast]
+18.0 +6.8 48 +18 +18 прохладно 1022.0 1021.3
18 19.09 С 4 20 км 8/0
[Ac cast]
+18.7 +6.6 45 +19 +19 по сезону 1021.0 1020.5 +18.7
21 19.09 В 2 20 км 10/0
[Ac und]
+14.9 +6.2 56 +15 +15 прохладно 1022.0 1021.3
00 20.09 В 2 20 км 10/0
[Ac und]
+14.8 +5.3 53 +15 +15 по сезону 1020.7 1020.0
03 20.09 В 2 20 км в посл. час ливневой дождь 10/5 600 м
[Cb cap Ac und]
+14.3 +6.6 60 +14 +14 по сезону 1019.4 1018.7 +14.0 0.0
06 20.09 В 5 10 км слаб. ливневой дождь 10/10 600 м
[Cb cap]
+12.8 +7.0 68 +11 +11 очень
холодно
1020.7 1020.0 +12.7 0.4
09 20.09 В 2 20 км слаб. ливневой дождь 10/8 600 м
[Cb cap Ac und]
+11.7 +9.3 85 +11 +11 очень
холодно
1019.4 1018.7
12 20.09 В 3 20 км слаб. ливневой дождь 10/8 600 м
[Cb cap Ac und]
+14.1 +6.3 59 +13 +14 очень
холодно
1017.8 1017.3
15 20.09 З 2 50 км {ливн. осадки} 10/8 600 м
[Cb cap Ac cast]
+14.3 +9.4 72 +14 +14 очень
холодно
1018.4 1017.9 2
18 20.09 СЗ 6 20 км зарница {ливн. осадки} 8/8 600 м
[Cb cap]
+16.6 +7.7 56 +16 +16 прохладно 1019.2 1018.7 +16.7 1
21 20.09 С 8-11
{14}
20 км {ливн. осадки} 6/4 600 м
[Cb cap Ac cast]
+15.5 +7.0 57 +14 +14 прохладно 1019.8 1019.3
00 21.09 СЗ 8-14
{18}
20 км в посл. час гроза {ливн. осадки} 8/8 600 м
[Cb cap]
+14.9 +6.3 56 +13 +13 прохладно 1020.0 1019.5
03 21.09 СЗ 8-12
{14}
20 км зарница 10/10 600 м
[Cb cap]
+13.5 +6.7 63 +11 +11 холодно 1020.3 1019.8 +10.5 2
06 21.09 В 2
{17}
20 км слаб. ливневой дождь 10/10 300 м
[Cb cap]
+10.5 +7.9 84 +9 +9 очень
холодно
1022.2 1021.7 +9.8 3
09 21.09 СЗ 7
{12}
20 км слаб. ливневой дождь 10/10 600 м
[Cb cap]
+14.2 +6.8 61 +12 +12 очень
холодно
1024.7 1024.0
12 21.09 СЗ 8-11
{11}
20 км {ливн. осадки} 8/8 600 м
[Cu med, cong]
+14.7 +5.2 53 +13 +13 очень
холодно
1023.6 1023.1
15 21.09 СЗ 9-12
{13}
20 км 8/8 600 м
[Cu med, cong]
+14.5 +6.0 57 +12 +12 очень
холодно
1024.2 1023.7 3
18 21.09 СЗ 8-12
{12}
20 км 8/8 600 м
[Cu med, cong]
+14.9 +4.7 50 +13 +13 холодно 1025.0 1024.5 +15.4 1
21 21.09 В 2
{12}
20 км 4/4 600 м
[Cu hum]
+11.2 +6.3 72 +10 +10 очень
холодно
1026.0 1025.3
00 22.09 В 2
{12}
20 км ясно +8.4 +6.4 87 +6 +6 очень
холодно
1026.0 1025.3
03 22.09 ЮВ 2 20 км 3/3 600 м
[Cu hum]
+12.7 +5.5 62 +12 +12 холодно 1023.8 1023.3 +9.0
06 22.09 З 2 20 км 10/10 600 м
[Sc diur, vesp]
+17.3 +7.2 51 +18 +18 по сезону 1024.2 1023.7 +9.0
09 22.09 ЮЗ 5 20 км 8/3 600 м
[Cu hum Ac As]
+17.2 +9.1 59 +17 +17 прохладно 1024.7 1024.0
12 22.09 ЮЗ 5 50 км 6/6 600 м
[Cb cap]
+19.4 +9.3 52 +20 +22 прохладно 1023.4 1022.7
15 22.09 З 5 50 км 5/5 600 м
[Cu hum]
+19.6 +9.8 53 +20 +21 по сезону 1022.0 1021.3
18 22.09 ЮЗ 2 20 км 4/3 600 м
[Cu med, cong Ac lent]
+17.9 +11.1 64 +18 +18 по сезону 1020.7 1020.2 +21.3
21 22.09 В 1 20 км 3/0 600 м
[Ac lent]
+12.8 +11.4 91 +13 +13 холодно 1020.7 1020.0
00 23.09 В 1 20 км 3/0
[Ci sp]
+11.7 +11.5 99 +11 +11 холодно 1020.7 1020.0
03 23.09 Ю 2 20 км 3/0
[Ac lent]
+16.9 +12.4 75 +17 +17 по сезону 1018.7 1018.2 +16.6
06 23.09 В 2 20 км 4/4 600 м
[Cu med, cong]
+14.9 +13.3 90 +15 +17 холодно 1020.7 1020.0 +11.5
09 23.09 СЗ 3 20 км 4 балла +18.5 +12.7 69 +19 +24 прохладно 1019.4 1018.7
12 23.09 З 4 20 км 6 баллов +18.7 +12.9 69 +19 +21 прохладно 1019.4 1018.7
15 23.09 З 2 20 км 2 балла +18.6 +12.8 69 +20 +20 по сезону 1018.0 1017.3
18 23.09 штиль 0 20 км 3/0
[Cc]
+15.3 +12.6 84 +15 +15 прохладно 1017.4 1016.9 +20.8

 

Местоположение метеостанции Севастополь (город Севастополь, Россия): широта 44.62 долгота 33.53 высота над уровнем моря 6 м.

В архиве по умолчанию представлена погода в Севастополе за последнюю неделю. Архивные данные за месяц целиком и за предыдущие месяцы, начиная с января 2011 года, Вы можете получить, выбрав интересующий диапазон дат из раскрывающегося списка и нажав кнопку "Ввод!".


*Определитесь, кто Вы:
робот инопланетянин человек

Внимание! Время в таблицах - всемирное. Для получения местного времени необходимо прибавить поправку, которая равна 3 ч.

Смотрите также архив погоды в соседних городах и на ближайших метеорологических станциях:

Погода в Херсонесском Маяке (город Севастополь, Россия) (13 км)
Погода в Почтовом (Крым, Россия) (41 км)
Погода на Ай-Петри (Крым, Россия) (47 км)
Погода в Ялте (Крым, Россия) (53 км)
Погода в Симферополе (Крым, Россия) (57 км)
Погода в Никитском саду (Крым, Россия) (58 км)
Погода в Симферополе город (Крым, Россия) (59 км)
Погода в Евпатории (Крым, Россия) (64 км)
Погода на Ангарском Перевале (Крым, Россия) (66 км)
Погода в Алуште (Крым, Россия) (69 км)

Пояснения к столбцам:

Ветер - указаны скорость ветра в м/с - средняя за 10 мин, порывы в срок и между сроками (в фигурных скобках) и направление, откуда дует ветер: С - северный, СВ - северо-восточный, В - восточный, ЮВ - юго-восточный, Ю - южный, ЮЗ - юго-западный, З - западный, СЗ - северо-западный.
Видимость - горизонтальная дальность видимости в метрах или километрах. При видимости от 1 до 10 км при отсутствии осадков обычно наблюдается дымка, при ухудшении видимости до 1 км и менее - туман. В сухую погоду видимость может ухудшаться дымом, пылью или мглою.
Явления - указаны атмосферные явления, наблюдавшиеся в срок или в последний час перед сроком; фигурными скобками обозначены явления, наблюдавшиеся между сроками (за 1-3 часа до срока); квадратными скобками обозначены град или гололедные отложения с указанием их диаметра в мм.
Облачность - указаны через наклонную черту общая и нижняя облачность в баллах и высота нижней границы облаков в метрах; квадратными скобками обозначены формы облаков: Ci - перистые, Cs - перисто-слоистые, Cc - перисто-кучевые, Ac - высококучевые, As - высокослоистые, Sc - слоисто-кучевые, Ns - слоисто-дождевые, Cu - кучевые, Cb - кучево-дождевые. Подробнее классификацию облаков см. в Атласе облаков (PDF).
T - Температура воздуха - температура, измеренная на высоте 2 м над землей.
Td - Температура точки росы - температура, при понижении до которой содержащийся в воздухе водяной пар достигнет насыщения.
f - Относительная влажность воздуха - влажноcть воздуха, измеренная на высоте 2 м над землей.
Te - Эффективная температура - температура, которую ощущает одетый по сезону человек в тени. Характеристика душности погоды. При расчете учитывается влияние влажности воздуха и скорости ветра на теплоощущения человека.
Tes - Эффективная температура на солнце - температура, которую ощущает человек, с поправкой на солнечный нагрев. Характеристика знойности погоды. Зависит от высоты солнца над горизонтом, облачности и скорости ветра. Ночью, в пасмурную погоду, а также при ветре 12 м/с и более поправка равна нулю.
P - Атмосферное давление - приведенное к уровню моря атмосферное давление.
Po - Атмосферное давление - измеренное на уровне метеостанции атмосферное давление.
Tmin - Минимальная температура - минимум температуры воздуха на высоте 2 м над землей.
Tmax - Максимальная температура - максимум температуры воздуха на высоте 2 м над землей.
R - Количество осадков - Количество выпавших осадков за период времени, мм. При наведении курсора мыши на число - период времени, за который выпало указанное количество осадков.
R24 - Количество осадков - Количество выпавших осадков за 24 часа, мм.
S - Снежный покров - Высота снежного покрова, см. При наведении курсора мыши на число - состояние снежного покрова и степень покрытия местности в баллах.